| time (UTC) | temp F | wind direction | speed MPH | gust MPH | rain 1hr in | rain 24hr in | rain mn in | humidity % | barometer mb |
| 20260831061546 | 56 | 0 | 0.0 | 0.0 | 0.00 | 0.14 | 0.00 | 89 | 1005.1 |
| 20260831061032 | 56 | 0 | 0.0 | 1.0 | 0.00 | 0.14 | 0.00 | 89 | 1005.0 |
| 20260831060533 | 56 | 0 | 0.0 | 1.0 | 0.00 | 0.14 | 0.00 | 89 | 1005.0 |
| 20260831060054 | 56 | 256 | 0.0 | 1.0 | 0.00 | 0.14 | 0.00 | 89 | 1005.0 |
| 20260831055531 | 56 | 0 | 0.0 | 1.0 | 0.00 | 0.22 | 0.00 | 89 | 1004.8 |
| 20260831055031 | 56 | 0 | 0.0 | 1.0 | 0.00 | 0.22 | 0.00 | 89 | 1004.7 |
| 20260831054545 | 56 | 0 | 0.0 | 1.0 | 0.00 | 0.22 | 0.00 | 89 | 1004.7 |
| 20260831054034 | 56 | 0 | 0.0 | 2.0 | 0.00 | 0.22 | 0.00 | 89 | 1004.6 |
| 20260831053531 | 56 | 274 | 0.0 | 2.0 | 0.00 | 0.22 | 0.00 | 89 | 1004.6 |
| 20260831053058 | 56 | 271 | 0.0 | 2.0 | 0.00 | 0.22 | 0.00 | 89 | 1004.5 |
| 20260831052531 | 56 | 262 | 0.0 | 1.0 | 0.00 | 0.22 | 0.00 | 89 | 1004.5 |
| 20260831052030 | 56 | 0 | 0.0 | 1.0 | 0.00 | 0.22 | 0.00 | 89 | 1004.4 |
| 20260831051553 | 56 | 0 | 0.0 | 1.0 | 0.00 | 0.22 | 0.00 | 89 | 1004.2 |
| 20260831051032 | 56 | 0 | 0.0 | 1.0 | 0.00 | 0.22 | 0.00 | 89 | 1004.3 |
| 20260831050533 | 56 | 251 | 0.0 | 1.0 | 0.00 | 0.22 | 0.00 | 89 | 1004.2 |
| 20260831050107 | 56 | 250 | 0.0 | 1.0 | 0.00 | 0.22 | 0.00 | 89 | 1004.2 |
| 20260831045531 | 56 | 0 | 0.0 | 0.0 | 0.00 | 0.32 | 0.00 | 89 | 1004.1 |
| 20260831045031 | 56 | 0 | 0.0 | 0.0 | 0.00 | 0.32 | 0.00 | 89 | 1004.0 |
| 20260831044603 | 56 | 0 | 0.0 | 1.0 | 0.00 | 0.32 | 0.00 | 89 | 1004.1 |
| 20260831044031 | 56 | 0 | 0.0 | 1.0 | 0.00 | 0.32 | 0.00 | 89 | 1004.0 |
| 20260831043532 | 56 | 0 | 0.0 | 1.0 | 0.00 | 0.32 | 0.00 | 89 | 1004.0 |
| 20260831043049 | 56 | 251 | 0.0 | 1.0 | 0.00 | 0.32 | 0.00 | 89 | 1004.0 |
| 20260831042534 | 56 | 0 | 0.0 | 1.0 | 0.00 | 0.32 | 0.00 | 89 | 1004.0 |
| 20260831042029 | 56 | 0 | 0.0 | 0.0 | 0.00 | 0.32 | 0.00 | 89 | 1003.9 |
| 20260831041644 | 56 | 0 | 0.0 | 0.0 | 0.00 | 0.32 | 0.00 | 89 | 1003.9 |
| 20260831041033 | 56 | 0 | 0.0 | 0.0 | 0.00 | 0.32 | 0.00 | 89 | 1004.0 |
| 20260831040532 | 56 | 0 | 0.0 | 1.0 | 0.00 | 0.32 | 0.00 | 89 | 1003.9 |
| 20260831035535 | 56 | 0 | 0.0 | 1.0 | 0.00 | 0.38 | 0.00 | 89 | 1003.9 |
| 20260831035038 | 56 | 0 | 0.0 | 1.0 | 0.00 | 0.38 | 0.00 | 89 | 1003.9 |
| 20260831034600 | 56 | 0 | 0.0 | 1.0 | 0.00 | 0.38 | 0.00 | 89 | 1003.8 |
| 20260831034032 | 56 | 253 | 0.0 | 1.0 | 0.00 | 0.38 | 0.00 | 89 | 1003.7 |
| 20260831033532 | 56 | 0 | 0.0 | 1.0 | 0.00 | 0.38 | 0.00 | 89 | 1003.6 |
| 20260831033057 | 56 | 0 | 0.0 | 1.0 | 0.00 | 0.38 | 0.00 | 89 | 1003.5 |
| 20260831032531 | 56 | 0 | 0.0 | 1.0 | 0.00 | 0.38 | 0.00 | 89 | 1003.5 |
| 20260831032033 | 56 | 0 | 0.0 | 1.0 | 0.00 | 0.38 | 0.00 | 89 | 1003.5 |
| 20260831031549 | 56 | 253 | 0.0 | 1.0 | 0.00 | 0.38 | 0.00 | 89 | 1003.5 |
| 20260831031030 | 56 | 0 | 0.0 | 0.0 | 0.00 | 0.38 | 0.00 | 89 | 1003.5 |
| 20260831030529 | 56 | 0 | 0.0 | 0.0 | 0.00 | 0.38 | 0.00 | 89 | 1003.4 |
| 20260831030053 | 57 | 0 | 0.0 | 1.0 | 0.00 | 0.38 | 0.00 | 89 | 1003.4 |
| 20260831025531 | 57 | 0 | 0.0 | 1.0 | 0.00 | 0.65 | 0.00 | 89 | 1003.3 |
| 20260831025031 | 57 | 0 | 0.0 | 1.0 | 0.00 | 0.65 | 0.00 | 89 | 1003.3 |
| 20260831024617 | 57 | 0 | 0.0 | 1.0 | 0.00 | 0.65 | 0.00 | 89 | 1003.2 |
| 20260831024031 | 57 | 0 | 0.0 | 1.0 | 0.00 | 0.65 | 0.00 | 89 | 1003.4 |
| 20260831023531 | 57 | 252 | 0.0 | 1.0 | 0.00 | 0.65 | 0.00 | 89 | 1003.3 |
| 20260831023052 | 57 | 252 | 0.0 | 1.0 | 0.00 | 0.65 | 0.00 | 89 | 1003.4 |
| 20260831022531 | 57 | 248 | 0.0 | 1.0 | 0.00 | 0.65 | 0.00 | 89 | 1003.2 |
| 20260831022031 | 57 | 0 | 0.0 | 1.0 | 0.00 | 0.65 | 0.00 | 89 | 1003.2 |
| 20260831021552 | 57 | 0 | 0.0 | 1.0 | 0.00 | 0.65 | 0.00 | 89 | 1003.2 |
| 20260831021032 | 57 | 248 | 0.0 | 1.0 | 0.00 | 0.65 | 0.00 | 89 | 1003.3 |
| 20260831020535 | 57 | 245 | 0.0 | 1.0 | 0.00 | 0.65 | 0.00 | 89 | 1003.2 |
| 20260831020047 | 57 | 0 | 0.0 | 1.0 | 0.00 | 0.65 | 0.00 | 89 | 1003.2 |
| 20260831015532 | 57 | 0 | 0.0 | 1.0 | 0.00 | 0.70 | 0.00 | 89 | 1003.1 |
| 20260831015031 | 57 | 0 | 0.0 | 0.0 | 0.00 | 0.70 | 0.00 | 88 | 1003.2 |
| 20260831014547 | 57 | 0 | 0.0 | 0.0 | 0.00 | 0.70 | 0.00 | 89 | 1003.0 |
| 20260831014031 | 57 | 0 | 0.0 | 0.0 | 0.00 | 0.70 | 0.00 | 88 | 1003.0 |
| 20260831013530 | 57 | 0 | 0.0 | 1.0 | 0.00 | 0.70 | 0.00 | 88 | 1003.0 |
| 20260831013057 | 57 | 234 | 0.0 | 1.0 | 0.00 | 0.70 | 0.00 | 88 | 1003.0 |
| 20260831012531 | 57 | 0 | 0.0 | 1.0 | 0.00 | 0.70 | 0.00 | 88 | 1003.2 |
| 20260831012031 | 57 | 0 | 0.0 | 1.0 | 0.00 | 0.70 | 0.00 | 88 | 1003.1 |
| 20260831011556 | 57 | 231 | 0.0 | 1.0 | 0.00 | 0.70 | 0.00 | 88 | 1003.0 |
| 20260831011031 | 57 | 266 | 0.0 | 1.0 | 0.00 | 0.70 | 0.00 | 88 | 1003.1 |
| 20260831010531 | 57 | 281 | 0.0 | 1.0 | 0.00 | 0.70 | 0.00 | 88 | 1003.2 |
| 20260831010115 | 57 | 0 | 0.0 | 1.0 | 0.00 | 0.70 | 0.00 | 88 | 1003.0 |
| 20260831005532 | 57 | 281 | 0.0 | 1.0 | 0.00 | 0.74 | 0.00 | 88 | 1003.0 |
| 20260831005034 | 57 | 0 | 0.0 | 0.0 | 0.00 | 0.74 | 0.00 | 88 | 1003.0 |
| 20260831004556 | 57 | 0 | 0.0 | 0.0 | 0.00 | 0.74 | 0.00 | 88 | 1003.0 |
| 20260831004031 | 57 | 0 | 0.0 | 0.0 | 0.00 | 0.74 | 0.00 | 88 | 1002.9 |
| 20260831003533 | 57 | 0 | 0.0 | 1.0 | 0.00 | 0.74 | 0.00 | 88 | 1003.0 |
| 20260831003049 | 57 | 0 | 0.0 | 1.0 | 0.00 | 0.74 | 0.00 | 88 | 1002.8 |
| 20260831002530 | 57 | 0 | 0.0 | 1.0 | 0.00 | 0.74 | 0.00 | 88 | 1002.8 |
| 20260831002030 | 57 | 0 | 0.0 | 1.0 | 0.00 | 0.74 | 0.00 | 88 | 1002.7 |
| 20260831001545 | 57 | 0 | 0.0 | 1.0 | 0.00 | 0.74 | 0.00 | 88 | 1002.7 |
| 20260831001033 | 57 | 0 | 0.0 | 1.0 | 0.00 | 0.74 | 0.00 | 88 | 1002.7 |
| 20260831000532 | 57 | 281 | 0.0 | 1.0 | 0.00 | 0.74 | 0.00 | 88 | 1002.7 |
| 20260831000104 | 57 | 0 | 0.0 | 1.0 | 0.00 | 0.74 | 0.00 | 88 | 1002.7 |
| 20260830235534 | 57 | 0 | 0.0 | 1.0 | 0.00 | 0.76 | 0.00 | 88 | 1002.5 |
| 20260830235029 | 57 | 0 | 0.0 | 1.0 | 0.00 | 0.76 | 0.00 | 88 | 1002.5 |
| 20260830234551 | 57 | 283 | 0.0 | 1.0 | 0.00 | 0.76 | 0.00 | 88 | 1002.8 |
| 20260830234033 | 57 | 280 | 0.0 | 1.0 | 0.00 | 0.76 | 0.00 | 88 | 1002.7 |
| 20260830233531 | 57 | 245 | 0.0 | 0.0 | 0.00 | 0.76 | 0.00 | 88 | 1002.6 |
| 20260830233047 | 57 | 0 | 0.0 | 0.0 | 0.00 | 0.76 | 0.00 | 88 | 1002.6 |
| 20260830232531 | 57 | 0 | 0.0 | 0.0 | 0.00 | 0.76 | 0.00 | 88 | 1002.6 |
| 20260830232031 | 57 | 0 | 0.0 | 0.0 | 0.00 | 0.76 | 0.00 | 88 | 1002.7 |
| 20260830231546 | 57 | 0 | 0.0 | 0.0 | 0.00 | 0.76 | 0.00 | 88 | 1002.8 |
| 20260830231035 | 57 | 0 | 0.0 | 0.0 | 0.00 | 0.76 | 0.00 | 88 | 1002.8 |
| 20260830230532 | 57 | 0 | 0.0 | 0.0 | 0.00 | 0.76 | 0.00 | 88 | 1002.6 |
| 20260830230053 | 57 | 0 | 0.0 | 0.0 | 0.00 | 0.76 | 0.00 | 88 | 1002.8 |
| 20260830225532 | 57 | 0 | 0.0 | 0.0 | 0.00 | 0.76 | 0.76 | 88 | 1002.8 |
| 20260830225031 | 57 | 0 | 0.0 | 0.0 | 0.00 | 0.76 | 0.76 | 88 | 1002.7 |
| 20260830224546 | 57 | 0 | 0.0 | 0.0 | 0.00 | 0.76 | 0.76 | 87 | 1002.6 |
| 20260830224031 | 57 | 0 | 0.0 | 0.0 | 0.00 | 0.76 | 0.76 | 87 | 1002.6 |
| 20260830223532 | 57 | 0 | 0.0 | 0.0 | 0.00 | 0.76 | 0.76 | 87 | 1002.5 |
| 20260830223130 | 57 | 0 | 0.0 | 0.0 | 0.00 | 0.76 | 0.76 | 87 | 1002.6 |
| 20260830222532 | 57 | 0 | 0.0 | 0.0 | 0.00 | 0.76 | 0.76 | 87 | 1002.6 |
| 20260830222033 | 57 | 0 | 0.0 | 0.0 | 0.00 | 0.76 | 0.76 | 87 | 1002.6 |
| 20260830221555 | 57 | 0 | 0.0 | 0.0 | 0.00 | 0.76 | 0.76 | 87 | 1002.7 |
| 20260830221031 | 57 | 0 | 0.0 | 0.0 | 0.00 | 0.76 | 0.76 | 87 | 1002.8 |
| 20260830220531 | 58 | 0 | 0.0 | 0.0 | 0.00 | 0.76 | 0.76 | 87 | 1002.7 |
| 20260830220105 | 58 | 0 | 0.0 | 0.0 | 0.00 | 0.76 | 0.76 | 87 | 1002.7 |
| 20260830215532 | 57 | 0 | 0.0 | 0.0 | 0.00 | 0.76 | 0.76 | 87 | 1002.6 |
| 20260830215029 | 57 | 0 | 0.0 | 0.0 | 0.00 | 0.76 | 0.76 | 87 | 1002.4 |
| 20260830214552 | 57 | 0 | 0.0 | 0.0 | 0.00 | 0.76 | 0.76 | 87 | 1002.5 |
| 20260830214029 | 58 | 0 | 0.0 | 0.0 | 0.00 | 0.76 | 0.76 | 87 | 1002.5 |
| 20260830213532 | 57 | 0 | 0.0 | 0.0 | 0.00 | 0.76 | 0.76 | 87 | 1002.5 |
| 20260830213050 | 57 | 0 | 0.0 | 0.0 | 0.00 | 0.76 | 0.76 | 87 | 1002.5 |
| 20260830212532 | 58 | 0 | 0.0 | 0.0 | 0.00 | 0.76 | 0.76 | 87 | 1002.5 |
| 20260830212031 | 58 | 0 | 0.0 | 0.0 | 0.00 | 0.76 | 0.76 | 87 | 1002.5 |
| 20260830211544 | 58 | 0 | 0.0 | 0.0 | 0.00 | 0.76 | 0.76 | 87 | 1002.5 |
| 20260830211032 | 58 | 0 | 0.0 | 0.0 | 0.00 | 0.76 | 0.76 | 86 | 1002.5 |
| 20260830210533 | 58 | 0 | 0.0 | 0.0 | 0.00 | 0.76 | 0.76 | 86 | 1002.4 |
| 20260830210045 | 58 | 0 | 0.0 | 0.0 | 0.00 | 0.76 | 0.76 | 86 | 1002.4 |
| 20260830205531 | 58 | 0 | 0.0 | 1.0 | 0.00 | 0.76 | 0.76 | 86 | 1002.5 |
| 20260830205033 | 58 | 0 | 0.0 | 1.0 | 0.00 | 0.76 | 0.76 | 86 | 1002.4 |
| 20260830204551 | 58 | 0 | 0.0 | 1.0 | 0.00 | 0.76 | 0.76 | 86 | 1002.4 |
| 20260830204032 | 58 | 0 | 0.0 | 1.0 | 0.00 | 0.76 | 0.76 | 86 | 1002.4 |
| 20260830203532 | 58 | 0 | 0.0 | 1.0 | 0.00 | 0.76 | 0.76 | 86 | 1002.3 |
| 20260830203048 | 58 | 0 | 0.0 | 1.0 | 0.00 | 0.76 | 0.76 | 86 | 1002.4 |
| 20260830202532 | 58 | 111 | 0.0 | 1.0 | 0.00 | 0.76 | 0.76 | 86 | 1002.3 |
| 20260830202032 | 58 | 0 | 0.0 | 1.0 | 0.00 | 0.76 | 0.76 | 86 | 1002.4 |
| 20260830201547 | 58 | 83 | 0.0 | 0.0 | 0.00 | 0.76 | 0.76 | 86 | 1002.3 |
| 20260830201031 | 58 | 0 | 0.0 | 0.0 | 0.00 | 0.76 | 0.76 | 86 | 1002.4 |
| 20260830200531 | 58 | 0 | 0.0 | 0.0 | 0.00 | 0.76 | 0.76 | 86 | 1002.4 |
| 20260830200042 | 58 | 0 | 0.0 | 0.0 | 0.00 | 0.76 | 0.76 | 85 | 1002.5 |
| 20260830195535 | 59 | 0 | 0.0 | 1.0 | 0.00 | 0.76 | 0.76 | 85 | 1002.4 |
| 20260830195033 | 59 | 0 | 0.0 | 2.0 | 0.00 | 0.76 | 0.76 | 85 | 1002.4 |
| 20260830194604 | 59 | 82 | 0.0 | 2.0 | 0.00 | 0.76 | 0.76 | 85 | 1002.4 |
| 20260830194031 | 59 | 78 | 0.0 | 1.0 | 0.00 | 0.76 | 0.76 | 85 | 1002.3 |
| 20260830193531 | 59 | 87 | 0.0 | 1.0 | 0.00 | 0.76 | 0.76 | 85 | 1002.5 |
| 20260830193100 | 59 | 0 | 0.0 | 1.0 | 0.00 | 0.76 | 0.76 | 85 | 1002.3 |
| 20260830192531 | 59 | 0 | 0.0 | 2.0 | 0.00 | 0.76 | 0.76 | 85 | 1002.5 |
| 20260830192031 | 59 | 94 | 0.0 | 2.0 | 0.00 | 0.76 | 0.76 | 85 | 1002.4 |
| 20260830191543 | 59 | 72 | 0.0 | 1.0 | 0.00 | 0.76 | 0.76 | 85 | 1002.4 |
| 20260830191031 | 60 | 0 | 0.0 | 1.0 | 0.00 | 0.76 | 0.76 | 84 | 1002.4 |
| 20260830190531 | 59 | 65 | 0.0 | 1.0 | 0.00 | 0.76 | 0.76 | 84 | 1002.3 |
| 20260830190048 | 60 | 63 | 0.0 | 1.0 | 0.00 | 0.76 | 0.76 | 84 | 1002.3 |
| 20260830185534 | 59 | 71 | 0.0 | 1.0 | 0.00 | 0.76 | 0.76 | 84 | 1002.3 |
| 20260830185032 | 59 | 75 | 0.0 | 1.0 | 0.00 | 0.76 | 0.76 | 84 | 1002.4 |
| 20260830184600 | 59 | 72 | 0.0 | 1.0 | 0.00 | 0.76 | 0.76 | 84 | 1002.5 |
| 20260830184032 | 59 | 0 | 0.0 | 1.0 | 0.00 | 0.76 | 0.76 | 84 | 1002.5 |
| 20260830183532 | 59 | 77 | 0.0 | 1.0 | 0.00 | 0.76 | 0.76 | 84 | 1002.5 |
| 20260830183046 | 59 | 72 | 0.0 | 1.0 | 0.00 | 0.76 | 0.76 | 84 | 1002.5 |
| 20260830182531 | 59 | 82 | 1.0 | 1.0 | 0.00 | 0.76 | 0.76 | 84 | 1002.5 |
| 20260830182031 | 59 | 75 | 0.0 | 2.0 | 0.00 | 0.76 | 0.76 | 84 | 1002.5 |
| 20260830181546 | 59 | 81 | 0.0 | 2.0 | 0.01 | 0.76 | 0.76 | 84 | 1002.5 |
| 20260830181035 | 59 | 70 | 0.0 | 2.0 | 0.02 | 0.76 | 0.76 | 84 | 1002.5 |
| 20260830180531 | 59 | 75 | 0.0 | 1.0 | 0.02 | 0.76 | 0.76 | 84 | 1002.5 |
| 20260830180046 | 59 | 63 | 0.0 | 1.0 | 0.03 | 0.76 | 0.76 | 84 | 1002.5 |
| 20260830175531 | 59 | 81 | 0.0 | 1.0 | 0.03 | 0.76 | 0.76 | 84 | 1002.5 |
| 20260830175031 | 59 | 0 | 0.0 | 2.0 | 0.03 | 0.76 | 0.76 | 84 | 1002.5 |
| 20260830174551 | 59 | 90 | 0.0 | 2.0 | 0.03 | 0.76 | 0.76 | 84 | 1002.5 |
| 20260830174030 | 59 | 67 | 0.0 | 2.0 | 0.04 | 0.76 | 0.76 | 83 | 1002.4 |
| 20260830173531 | 60 | 63 | 0.0 | 1.0 | 0.06 | 0.76 | 0.76 | 83 | 1002.5 |
| 20260830173048 | 60 | 86 | 0.0 | 1.0 | 0.07 | 0.76 | 0.76 | 83 | 1002.6 |
| 20260830172533 | 60 | 0 | 0.0 | 1.0 | 0.06 | 0.75 | 0.75 | 83 | 1002.5 |
| 20260830172033 | 59 | 127 | 0.0 | 1.0 | 0.06 | 0.75 | 0.75 | 82 | 1002.5 |
| 20260830171556 | 59 | 56 | 0.0 | 1.0 | 0.05 | 0.74 | 0.74 | 81 | 1002.5 |
| 20260830171035 | 60 | 0 | 0.0 | 1.0 | 0.04 | 0.74 | 0.74 | 81 | 1002.6 |
| 20260830170531 | 60 | 0 | 0.0 | 1.0 | 0.04 | 0.74 | 0.74 | 81 | 1002.6 |
| 20260830170057 | 60 | 0 | 0.0 | 1.0 | 0.03 | 0.73 | 0.73 | 80 | 1002.6 |
| 20260830165530 | 61 | 0 | 0.0 | 1.0 | 0.03 | 0.73 | 0.73 | 80 | 1002.7 |
| 20260830165034 | 61 | 0 | 0.0 | 1.0 | 0.03 | 0.73 | 0.73 | 80 | 1002.7 |
| 20260830164548 | 61 | 0 | 0.0 | 1.0 | 0.03 | 0.72 | 0.72 | 79 | 1002.6 |
| 20260830164033 | 62 | 0 | 0.0 | 1.0 | 0.01 | 0.70 | 0.70 | 78 | 1002.5 |
| 20260830163530 | 63 | 271 | 0.0 | 1.0 | 0.00 | 0.70 | 0.70 | 77 | 1002.7 |
| 20260830163050 | 64 | 281 | 0.0 | 1.0 | 0.00 | 0.69 | 0.69 | 77 | 1002.6 |
| 20260830162530 | 64 | 0 | 0.0 | 1.0 | 0.00 | 0.69 | 0.69 | 77 | 1002.4 |
| 20260830162033 | 64 | 0 | 0.0 | 1.0 | 0.00 | 0.69 | 0.69 | 76 | 1002.4 |
| 20260830161548 | 65 | 70 | 0.0 | 2.0 | 0.00 | 0.69 | 0.69 | 75 | 1002.4 |
| 20260830161030 | 65 | 0 | 0.0 | 2.0 | 0.00 | 0.69 | 0.69 | 75 | 1002.5 |
| 20260830160531 | 65 | 0 | 0.0 | 1.0 | 0.00 | 0.69 | 0.69 | 75 | 1002.4 |
| 20260830160052 | 65 | 0 | 0.0 | 1.0 | 0.00 | 0.69 | 0.69 | 75 | 1002.5 |
| 20260830155529 | 65 | 0 | 0.0 | 1.0 | 0.00 | 0.69 | 0.69 | 75 | 1002.4 |
| 20260830155030 | 65 | 0 | 0.0 | 1.0 | 0.00 | 0.69 | 0.69 | 75 | 1002.4 |
| 20260830154548 | 65 | 0 | 0.0 | 1.0 | 0.00 | 0.69 | 0.69 | 75 | 1002.3 |
| 20260830154032 | 65 | 0 | 0.0 | 1.0 | 0.00 | 0.69 | 0.69 | 75 | 1002.4 |
| 20260830153531 | 65 | 297 | 0.0 | 1.0 | 0.00 | 0.69 | 0.69 | 75 | 1002.4 |
| 20260830153050 | 65 | 0 | 0.0 | 1.0 | 0.00 | 0.69 | 0.69 | 75 | 1002.5 |
| 20260830152533 | 66 | 255 | 0.0 | 1.0 | 0.00 | 0.69 | 0.69 | 75 | 1002.5 |
| 20260830152030 | 66 | 0 | 0.0 | 1.0 | 0.00 | 0.69 | 0.69 | 75 | 1002.5 |
| 20260830151553 | 66 | 0 | 0.0 | 1.0 | 0.00 | 0.69 | 0.69 | 74 | 1002.6 |
| 20260830151030 | 66 | 0 | 0.0 | 1.0 | 0.00 | 0.69 | 0.69 | 74 | 1002.6 |
| 20260830150531 | 66 | 0 | 0.0 | 1.0 | 0.00 | 0.69 | 0.69 | 73 | 1002.5 |
| 20260830150045 | 66 | 0 | 0.0 | 2.0 | 0.00 | 0.69 | 0.69 | 73 | 1002.6 |
| 20260830145532 | 66 | 0 | 0.0 | 2.0 | 0.00 | 0.69 | 0.69 | 73 | 1002.7 |
| 20260830145030 | 66 | 123 | 1.0 | 2.0 | 0.00 | 0.69 | 0.69 | 72 | 1002.7 |
| 20260830144554 | 67 | 89 | 0.0 | 1.0 | 0.00 | 0.69 | 0.69 | 73 | 1002.7 |
| 20260830144033 | 67 | 96 | 0.0 | 1.0 | 0.00 | 0.69 | 0.69 | 74 | 1002.9 |
| 20260830143530 | 66 | 0 | 0.0 | 2.0 | 0.00 | 0.69 | 0.69 | 73 | 1002.8 |
| 20260830143045 | 66 | 178 | 0.0 | 2.0 | 0.00 | 0.69 | 0.69 | 73 | 1002.8 |
| 20260830142531 | 67 | 0 | 0.0 | 1.0 | 0.00 | 0.69 | 0.69 | 75 | 1002.9 |
| 20260830142031 | 66 | 0 | 0.0 | 1.0 | 0.00 | 0.69 | 0.69 | 74 | 1002.9 |
| 20260830141555 | 67 | 0 | 0.0 | 1.0 | 0.00 | 0.69 | 0.69 | 75 | 1003.0 |
| 20260830141031 | 67 | 0 | 0.0 | 1.0 | 0.00 | 0.69 | 0.69 | 76 | 1002.9 |
| 20260830140530 | 66 | 101 | 0.0 | 1.0 | 0.00 | 0.69 | 0.69 | 76 | 1002.9 |
| 20260830140104 | 66 | 90 | 0.0 | 1.0 | 0.00 | 0.69 | 0.69 | 76 | 1002.9 |
| 20260830135535 | 65 | 283 | 0.0 | 1.0 | 0.00 | 0.69 | 0.69 | 76 | 1003.0 |
| 20260830135031 | 65 | 0 | 0.0 | 1.0 | 0.00 | 0.69 | 0.69 | 76 | 1003.1 |
| 20260830134550 | 65 | 262 | 0.0 | 1.0 | 0.00 | 0.69 | 0.69 | 77 | 1003.2 |
| 20260830134030 | 65 | 0 | 0.0 | 1.0 | 0.00 | 0.69 | 0.69 | 76 | 1003.2 |
| 20260830133530 | 65 | 0 | 0.0 | 1.0 | 0.00 | 0.69 | 0.69 | 77 | 1003.3 |
| 20260830133049 | 64 | 0 | 0.0 | 1.0 | 0.00 | 0.69 | 0.69 | 77 | 1003.4 |
| 20260830132531 | 64 | 86 | 0.0 | 1.0 | 0.00 | 0.69 | 0.69 | 77 | 1003.2 |
| 20260830132030 | 64 | 313 | 0.0 | 1.0 | 0.00 | 0.69 | 0.69 | 78 | 1003.4 |
| 20260830131556 | 65 | 0 | 0.0 | 2.0 | 0.00 | 0.69 | 0.69 | 78 | 1003.5 |
| 20260830131032 | 64 | 0 | 0.0 | 2.0 | 0.00 | 0.69 | 0.69 | 78 | 1003.5 |
| 20260830130528 | 64 | 0 | 0.0 | 1.0 | 0.00 | 0.69 | 0.69 | 78 | 1003.6 |
| 20260830130104 | 65 | 71 | 0.0 | 1.0 | 0.00 | 0.69 | 0.69 | 78 | 1003.5 |
| 20260830125533 | 65 | 0 | 0.0 | 1.0 | 0.00 | 0.69 | 0.69 | 79 | 1003.6 |
| 20260830125030 | 64 | 95 | 0.0 | 1.0 | 0.00 | 0.69 | 0.69 | 79 | 1003.6 |
| 20260830124546 | 64 | 0 | 0.0 | 1.0 | 0.00 | 0.69 | 0.69 | 80 | 1003.7 |
| 20260830124035 | 64 | 0 | 0.0 | 1.0 | 0.00 | 0.69 | 0.69 | 80 | 1003.7 |
| 20260830123532 | 64 | 0 | 0.0 | 1.0 | 0.00 | 0.69 | 0.69 | 80 | 1003.7 |
| 20260830123048 | 64 | 342 | 0.0 | 1.0 | 0.00 | 0.69 | 0.69 | 80 | 1003.7 |
| 20260830122531 | 64 | 197 | 0.0 | 1.0 | 0.00 | 0.69 | 0.69 | 81 | 1003.7 |
| 20260830122032 | 64 | 0 | 0.0 | 1.0 | 0.00 | 0.69 | 0.69 | 82 | 1003.6 |
| 20260830121556 | 64 | 118 | 0.0 | 1.0 | 0.00 | 0.69 | 0.69 | 83 | 1003.6 |
| 20260830121033 | 64 | 87 | 0.0 | 1.0 | 0.00 | 0.69 | 0.69 | 83 | 1003.6 |
| 20260830120532 | 63 | 0 | 0.0 | 1.0 | 0.00 | 0.69 | 0.69 | 83 | 1003.6 |
| 20260830120048 | 63 | 70 | 0.0 | 2.0 | 0.00 | 0.69 | 0.69 | 83 | 1003.6 |
| 20260830115532 | 63 | 0 | 0.0 | 2.0 | 0.00 | 0.69 | 0.69 | 84 | 1003.7 |
| 20260830115030 | 63 | 151 | 0.0 | 2.0 | 0.00 | 0.69 | 0.69 | 84 | 1003.7 |
| 20260830114544 | 63 | 248 | 1.0 | 2.0 | 0.00 | 0.69 | 0.69 | 84 | 1003.8 |
| 20260830114033 | 62 | 0 | 0.0 | 2.0 | 0.00 | 0.69 | 0.69 | 85 | 1003.8 |
| 20260830113532 | 62 | 89 | 0.0 | 1.0 | 0.00 | 0.69 | 0.69 | 86 | 1003.7 |
| 20260830113048 | 62 | 156 | 0.0 | 1.0 | 0.00 | 0.69 | 0.69 | 86 | 1003.8 |
| 20260830112531 | 62 | 0 | 0.0 | 1.0 | 0.00 | 0.69 | 0.69 | 87 | 1003.8 |
| 20260830112033 | 61 | 299 | 0.0 | 1.0 | 0.00 | 0.69 | 0.69 | 87 | 1003.8 |
| 20260830111546 | 61 | 0 | 0.0 | 1.0 | 0.00 | 0.69 | 0.69 | 87 | 1003.8 |
| 20260830111031 | 61 | 65 | 0.0 | 1.0 | 0.00 | 0.69 | 0.69 | 87 | 1003.9 |
| 20260830110531 | 61 | 0 | 0.0 | 1.0 | 0.00 | 0.69 | 0.69 | 88 | 1004.0 |
| 20260830110058 | 61 | 0 | 0.0 | 1.0 | 0.00 | 0.69 | 0.69 | 88 | 1003.8 |
| 20260830105531 | 61 | 352 | 0.0 | 1.0 | 0.00 | 0.69 | 0.69 | 88 | 1003.8 |
| 20260830105031 | 61 | 63 | 0.0 | 1.0 | 0.00 | 0.69 | 0.69 | 88 | 1003.8 |
| 20260830104551 | 61 | 0 | 0.0 | 1.0 | 0.00 | 0.69 | 0.69 | 88 | 1003.9 |
| 20260830104031 | 61 | 0 | 0.0 | 1.0 | 0.00 | 0.69 | 0.69 | 88 | 1003.9 |
| 20260830103531 | 60 | 11 | 0.0 | 1.0 | 0.00 | 0.69 | 0.69 | 88 | 1003.9 |
| 20260830103048 | 61 | 146 | 0.0 | 1.0 | 0.00 | 0.69 | 0.69 | 88 | 1004.0 |
| 20260830102533 | 60 | 0 | 0.0 | 1.0 | 0.00 | 0.69 | 0.69 | 88 | 1003.9 |
| 20260830102030 | 60 | 0 | 0.0 | 1.0 | 0.00 | 0.69 | 0.69 | 88 | 1004.1 |
| 20260830101545 | 60 | 65 | 0.0 | 1.0 | 0.00 | 0.69 | 0.69 | 88 | 1004.1 |
| 20260830101028 | 60 | 0 | 0.0 | 1.0 | 0.00 | 0.69 | 0.69 | 88 | 1004.1 |
| 20260830100530 | 60 | 0 | 0.0 | 1.0 | 0.00 | 0.68 | 0.68 | 88 | 1004.2 |
| 20260830100056 | 60 | 0 | 0.0 | 1.0 | 0.00 | 0.68 | 0.68 | 88 | 1004.1 |
| 20260830095531 | 60 | 0 | 0.0 | 1.0 | 0.00 | 0.68 | 0.68 | 89 | 1004.0 |
| 20260830095032 | 60 | 0 | 0.0 | 0.0 | 0.00 | 0.68 | 0.68 | 89 | 1004.0 |
| 20260830094548 | 59 | 0 | 0.0 | 0.0 | 0.00 | 0.68 | 0.68 | 89 | 1004.1 |
| 20260830094030 | 59 | 0 | 0.0 | 0.0 | 0.00 | 0.68 | 0.68 | 89 | 1004.2 |
| 20260830093530 | 59 | 0 | 0.0 | 1.0 | 0.00 | 0.68 | 0.68 | 89 | 1004.1 |
| 20260830093043 | 59 | 0 | 0.0 | 1.0 | 0.00 | 0.68 | 0.68 | 88 | 1004.1 |
| 20260830092531 | 59 | 0 | 0.0 | 0.0 | 0.00 | 0.68 | 0.68 | 89 | 1004.1 |
| 20260830092032 | 59 | 0 | 0.0 | 0.0 | 0.00 | 0.68 | 0.68 | 88 | 1004.0 |
| 20260830091551 | 59 | 0 | 0.0 | 0.0 | 0.00 | 0.68 | 0.68 | 89 | 1004.1 |
| 20260830091031 | 59 | 0 | 0.0 | 0.0 | 0.00 | 0.68 | 0.68 | 88 | 1004.2 |
| 20260830090531 | 59 | 0 | 0.0 | 1.0 | 0.00 | 0.68 | 0.68 | 89 | 1004.0 |
| 20260830090125 | 59 | 0 | 0.0 | 1.0 | 0.00 | 0.68 | 0.68 | 89 | 1004.1 |
| 20260830085530 | 59 | 0 | 0.0 | 0.0 | 0.00 | 0.68 | 0.68 | 89 | 1004.1 |
| 20260830085030 | 59 | 0 | 0.0 | 0.0 | 0.00 | 0.68 | 0.68 | 89 | 1004.1 |
| 20260830084620 | 59 | 0 | 0.0 | 0.0 | 0.00 | 0.68 | 0.68 | 89 | 1004.1 |
| 20260830084030 | 59 | 0 | 0.0 | 1.0 | 0.00 | 0.68 | 0.68 | 89 | 1004.2 |
| 20260830083533 | 59 | 0 | 0.0 | 2.0 | 0.00 | 0.68 | 0.68 | 89 | 1004.0 |
| 20260830083048 | 59 | 0 | 0.0 | 2.0 | 0.00 | 0.68 | 0.68 | 89 | 1004.0 |
| 20260830082531 | 58 | 0 | 0.0 | 1.0 | 0.00 | 0.68 | 0.68 | 89 | 1004.0 |
| 20260830082030 | 58 | 0 | 0.0 | 1.0 | 0.00 | 0.68 | 0.68 | 89 | 1004.0 |
| 20260830081558 | 58 | 73 | 0.0 | 1.0 | 0.00 | 0.68 | 0.68 | 89 | 1003.9 |
| 20260830081034 | 58 | 0 | 0.0 | 1.0 | 0.00 | 0.68 | 0.68 | 89 | 1003.9 |
| 20260830080532 | 58 | 0 | 0.0 | 2.0 | 0.00 | 0.68 | 0.68 | 89 | 1004.0 |
| 20260830080046 | 58 | 77 | 0.0 | 2.0 | 0.00 | 0.68 | 0.68 | 89 | 1003.9 |
| 20260830075531 | 58 | 87 | 1.0 | 2.0 | 0.02 | 0.68 | 0.68 | 89 | 1003.9 |
| 20260830075033 | 58 | 69 | 1.0 | 2.0 | 0.02 | 0.68 | 0.68 | 88 | 1003.9 |
| 20260830074558 | 58 | 112 | 0.0 | 1.0 | 0.03 | 0.68 | 0.68 | 88 | 1003.8 |
| 20260830074031 | 58 | 68 | 0.0 | 1.0 | 0.03 | 0.68 | 0.68 | 89 | 1003.8 |
| 20260830073531 | 57 | 83 | 0.0 | 1.0 | 0.03 | 0.68 | 0.68 | 88 | 1003.9 |
| 20260830073048 | 57 | 84 | 1.0 | 2.0 | 0.03 | 0.68 | 0.68 | 88 | 1003.8 |
| 20260830072531 | 57 | 68 | 0.0 | 2.0 | 0.03 | 0.68 | 0.68 | 88 | 1003.9 |
| 20260830072031 | 57 | 84 | 1.0 | 2.0 | 0.03 | 0.68 | 0.68 | 88 | 1003.9 |
| 20260830071553 | 57 | 72 | 0.0 | 2.0 | 0.04 | 0.68 | 0.68 | 88 | 1003.9 |
| 20260830071030 | 57 | 88 | 0.0 | 2.0 | 0.05 | 0.68 | 0.68 | 88 | 1003.9 |
| 20260830070531 | 57 | 63 | 0.0 | 2.0 | 0.05 | 0.68 | 0.68 | 88 | 1003.8 |
| 20260830070054 | 57 | 120 | 1.0 | 3.0 | 0.04 | 0.66 | 0.66 | 88 | 1003.8 |
| 20260830065531 | 57 | 98 | 1.0 | 3.0 | 0.03 | 0.66 | 0.66 | 88 | 1003.8 |
| 20260830065030 | 57 | 71 | 1.0 | 2.0 | 0.04 | 0.66 | 0.66 | 88 | 1003.8 |
| 20260830064548 | 58 | 0 | 0.0 | 2.0 | 0.03 | 0.65 | 0.65 | 88 | 1003.8 |
| 20260830064032 | 58 | 78 | 1.0 | 2.0 | 0.04 | 0.65 | 0.65 | 88 | 1003.7 |
| 20260830063531 | 58 | 69 | 1.0 | 2.0 | 0.05 | 0.65 | 0.65 | 88 | 1003.8 |
| 20260830063049 | 58 | 103 | 0.0 | 2.0 | 0.06 | 0.65 | 0.65 | 88 | 1003.9 |
| 20260830062529 | 58 | 63 | 0.0 | 2.0 | 0.07 | 0.65 | 0.65 | 88 | 1003.8 |
| 20260830062030 | 58 | 92 | 0.0 | 3.0 | 0.07 | 0.64 | 0.64 | 88 | 1003.6 |